Location: ???
(33.5814°N, 35.4611°E)
Time: 10:58:53
(UTC+00:00)

Daily predictions for brighter satellites

Satellite Brightness Start Highest point End
(mag) Time Altitude Azimuth Time Altitude Azimuth Time Altitude Azimuth
Cosmos 1703 4.2 15:16:49 10° NNE 15:20:07 25° ENE 15:23:23 10° SE
Cosmos 1503 Rocket 4.2 15:15:39 10° NNW 15:20:50 81° WSW 15:26:01 10° SSE
BREEZE-M DEB (TANK) 4.5 14:59:47 10° SW 15:22:27 89° NW 15:27:18 10° NE
OAO 3 Rocket 3.3 15:18:55 10° W 15:23:50 76° N 15:28:48 10° E
SMAP 3.4 15:19:29 10° S 15:24:06 74° WSW 15:28:46 10° NNW
Meteor 1-16 Rocket 4.2 15:20:13 10° S 15:25:49 89° E 15:31:16 10° N
Meteosat 1 Rocket2 4.0 15:24:32 10° SW 15:28:02 29° S 15:31:14 10° ESE
Cosmos 2278 Rocket 2.2 15:25:38 10° SSW 15:31:16 73° ESE 15:36:56 10° NNE
Unknown 3.7 15:29:13 10° NNW 15:31:30 25° NE 15:33:45 10° E
Cosmos 1242 Rocket 2.6 15:30:21 10° N 15:33:58 55° E 15:37:32 10° SSE
Delta 2 Rocket 2.9 15:31:33 10° WSW 15:35:10 75° SSE 15:38:13 12° E
Cosmos 1908 3.2 15:32:20 10° S 15:36:11 60° E 15:40:01 10° NNE
ATLAS 3B R/B 3.7 15:34:43 10° SSE 15:39:47 23° ESE 15:44:46 10° ENE
ASTEX 1 3.4 15:36:46 10° N 15:41:45 78° E 15:46:44 10° S
Cosmos 1726 2.8 15:42:03 10° SSW 15:45:38 56° W 15:49:13 10° N
CSL-04 Rocket 4.0 15:41:35 10° SE 15:46:46 43° ENE 15:51:56 10° N
YAOGAN 1 3.1 15:43:24 10° SE 15:47:22 37° ENE 15:51:22 10° N
CENTAUR R/B 3.3 15:44:24 10° SSE 15:48:55 25° ESE 15:53:31 11° ENE
SKYMED 2 3.8 15:47:59 10° N 15:52:19 74° WNW 15:56:38 10° SSW
Envisat 3.0 15:47:42 10° SSE 15:52:46 87° ENE 15:57:52 10° NNW
Lacrosse 5 3.5 15:55:07 10° N 15:58:22 17° NE 15:59:49 15° NE
CZ-3 Stage 3 1.5 15:59:43 10° W 16:05:57 55° S 16:07:06 29° ESE
Lacrosse 5 rocket 3.6 16:06:33 10° WNW 16:09:44 24° WSW 16:13:03 10° S
USA 238 DEB 3.9 16:04:02 10° SW 16:10:40 73° WNW 16:17:30 10° NNE
USA 238 3.9 16:04:08 10° SW 16:10:46 74° WNW 16:17:37 10° NNE
Shenzhou-11 Module 3.7 16:08:59 10° NNW 16:11:00 18° NNE 16:11:01 18° NNE
Cosmos 1833 Rocket 2.9 16:07:28 10° N 16:12:53 47° ENE 16:17:29 14° SE
Cosmos 1939 Rocket 3.3 16:14:54 30° ESE 16:16:09 38° ENE 16:19:53 10° N
Unknown 3.9 16:13:32 10° NNW 16:16:03 30° NNE 16:16:03 30° NNE
YAOGAN 6 3.1 16:13:29 10° S 16:17:06 63° W 16:20:43 10° NNW
DMSP B5D1-3 4.5 16:18:13 10° NNE 16:23:23 90° E 16:28:32 10° SSW
CZ-2D R/B 3.1 16:26:41 27° SSE 16:28:36 64° ENE 16:32:26 10° N
Cosmos 482 Debris 3.9 16:26:30 10° NW 16:30:27 60° SW 16:30:46 54° SSW
Cosmos 1300 2.6 16:26:39 10° S 16:30:27 90° ESE 16:34:16 10° N
NOSS 3-2 (A) 3.9 16:29:13 10° SW 16:34:42 55° NW 16:40:50 10° NNE
Ariane Rocket 3.0 16:32:23 23° SE 16:35:25 57° ENE 16:40:25 10° N
Cosmos 1459 Rocket 4.1 16:34:38 10° N 16:40:41 49° E 16:43:09 33° SE
Cosmos 2082 Rocket 2.2 16:35:50 10° NNW 16:41:27 57° ENE 16:42:41 47° ESE
Cosmos 1461 2.9 16:37:29 10° NNW 16:41:20 63° NE 16:41:20 63° NE
Cosmos 468 Rocket 3.9 16:36:36 10° S 16:41:48 63° ESE 16:43:43 38° NE
H-2A R/B 4.5 14:56:51 10° SW 16:42:40 73° SSE 16:49:46 34° E
Meteor 2-1 Rocket 4.0 16:39:12 10° S 16:44:40 76° E 16:50:13 10° NNE
CZ-4 R/B 3.5 16:41:20 10° SSW 16:44:58 29° W 16:48:39 10° NW
OAO 2 Rocket 4.0 16:43:14 10° W 16:48:18 49° SSW 16:49:44 38° SSE
Cosmos 44 3.7 16:46:39 10° SW 16:51:38 61° WNW 16:54:02 28° N
OAO 3 Copernicus 4.2 16:49:41 10° W 16:54:46 76° N 16:55:03 73° NNE
NOSS 3-2 (C) 3.8 16:54:13 10° SW 16:59:44 56° NW 17:04:26 17° NNE
Delta 2 Rocket 4.4 16:54:17 10° WSW 16:59:55 43° S 17:00:32 42° SSE
BREEZE M DEB (TANK) 3.2 16:58:43 10° NW 17:02:09 63° NE 17:02:09 63° NE
In-Cosmos 22 Rocket 4.5 17:00:51 10° N 17:04:58 51° NNE 17:04:58 51° NNE
OAO 3 Rocket 3.6 17:02:31 10° W 17:06:59 60° SW 17:06:59 60° SW
Cosmos 2173 Rocket 3.8 17:01:24 10° N 17:07:39 84° E 17:09:24 50° SSE
Gbstr 26 Del rocket 4.2 17:01:48 10° NW 17:08:23 63° NE 17:08:56 61° ENE
ADEOS Rocket 3.3 17:03:58 10° NNE 17:11:27 65° E 17:18:14 10° S
Cosmos 1802 Rocket 3.9 17:06:40 10° N 17:12:49 75° ENE 17:12:49 75° ENE
Cosmos 1763 Rocket 4.2 17:16:23 10° SSW 17:20:17 48° SW 17:20:17 48° SW
Cosmos 967 Rocket 4.4 17:15:36 10° NNW 17:22:04 81° WSW 17:22:21 79° SSW
H-2A R/B 4.4 17:33:28 13° N 17:33:28 13° N 17:34:06 10° N
ATLAS 3B R/B 3.1 17:23:20 10° SW 17:29:58 56° WNW 17:32:24 37° N
CENTAUR R/B 3.4 17:33:37 10° WSW 17:39:04 42° NW 17:40:48 35° NNW
Lacrosse 5 3.7 17:36:48 10° NW 17:39:02 26° NW 17:39:02 26° NW
